YD2APR-13 Weather Reports


Display with metric or nautical units.
time (UTC)temp
F
wind
direction
speed
MPH
gust
MPH
rain 1hr
in
rain 24hr
in
rain mn
in
humidity
%
barometer
mb
20260502194001 74 0.0 0.0 0.00 0.00 0.00 90 1014.4
20260502193001 74 0.0 0.0 0.00 0.00 0.00 90 1014.5
20260502192001 74 0.0 0.0 0.00 0.00 0.00 90 1014.5
20260502191000 74 0.0 0.0 0.00 0.00 0.00 90 1014.4
20260502190000 74 0.0 0.0 0.00 0.00 0.00 90 1014.4
20260502185000 74 0.0 0.0 0.00 0.00 0.00 90 1014.4
20260502184000 74 0.0 0.0 0.00 0.00 0.00 90 1014.4
20260502183000 74 0.0 0.0 0.00 0.00 0.00 91 1014.5
20260502182000 74 0.0 0.0 0.00 0.00 0.00 91 1014.7
20260502181000 74 0.0 0.0 0.00 0.00 0.00 91 1014.8
20260502164000 76 0.0 0.0 0.00 0.00 0.00 89 1015.6
20260502163002 76 0.0 0.0 0.00 0.00 0.00 88 1015.7
20260502162000 77 0.0 0.0 0.00 0.00 0.00 86 1015.8
20260502161000 77 0.0 0.0 0.00 0.00 0.00 85 1015.8
20260502152000 77 0.0 0.0 0.00 0.00 0.00 87 1015.7
20260502151001 77 0.0 0.0 0.00 0.00 0.00 86 1015.8
20260502123000 78 0.0 0.0 0.00 0.00 0.00 87 1014.8
20260502122000 79 0.0 0.0 0.00 0.00 0.00 86 1014.5
20260502121000 79 0.0 0.0 0.00 0.00 0.00 85 1014.3
20260502115000 78 0.0 0.0 0.00 0.00 0.00 85 1013.9
20260502114001 79 0.0 0.0 0.00 0.00 0.00 85 1013.7
20260502113000 79 0.0 0.0 0.00 0.00 0.00 84 1013.7
20260502112000 79 0.0 0.0 0.00 0.00 0.00 84 1013.6
20260502111000 79 0.0 0.0 0.00 0.00 0.00 83 1013.6
20260502110000 80 0.0 0.0 0.00 0.00 0.00 80 1013.5
20260502105000 80 0.0 0.0 0.00 0.00 0.00 78 1013.3
20260502104000 82 0.0 0.0 0.00 0.00 0.00 73 1013.2
20260502102959 82 0.0 0.0 0.00 0.00 0.00 70 1013.1
20260502101959 82 0.0 0.0 0.00 0.00 0.00 70 1012.9
20260502101000 83 0.0 0.0 0.00 0.00 0.00 70 1012.9
20260502090959 87 0.0 0.0 0.00 0.00 0.00 61 1012.4
20260502071103 96 0.0 0.0 0.00 0.00 0.00 47 1012.8
20260502065102 93 0.0 0.0 0.00 0.00 0.00 51 1013.2
20260502064103 96 0.0 0.0 0.00 0.00 0.00 49 1013.5
20260502063104 96 0.0 0.0 0.00 0.00 0.00 49 1013.7
20260502062102 94 0.0 0.0 0.00 0.00 0.00 51 1013.8
20260502061102 95 0.0 0.0 0.00 0.00 0.00 50 1014.0
20260502055104 94 0.0 0.0 0.00 0.00 0.00 50 1014.3
20260502054102 94 0.0 0.0 0.00 0.00 0.00 50 1014.4
20260502053102 90 0.0 0.0 0.00 0.00 0.00 54 1014.5
20260502052102 92 0.0 0.0 0.00 0.00 0.00 54 1014.7
20260502051102 93 0.0 0.0 0.00 0.00 0.00 52 1014.9
20260502045102 95 0.0 0.0 0.00 0.00 0.00 50 1015.0
20260502044102 94 0.0 0.0 0.00 0.00 0.00 50 1015.1
20260502043102 92 0.0 0.0 0.00 0.00 0.00 52 1015.2
20260502042102 90 0.0 0.0 0.00 0.00 0.00 55 1015.4
20260502041102 91 0.0 0.0 0.00 0.00 0.00 53 1015.6
20260502040052 90 0.0 0.0 0.00 0.00 0.00 56 1015.7
20260502035138 90 0.0 0.0 0.00 0.00 0.00 54 1016.0
20260502034138 90 0.0 0.0 0.00 0.00 0.00 54 1016.0
20260502033145 91 0.0 0.0 0.00 0.00 0.00 53 1016.1